Total_Precipitation_Accumulation
0.00 0.00 0.01 0.01 0.01 0.01 0.01 0.01 0.00 0.01 0.03 0.03 0.01 0.01 0.01 0.01 0.01 0.01 0.01 0.02 0.01 0.01 0.02 0.03 0.02 0.02 0.01 0.02 0.07 0.09 0.08 0.08 0.05 0.03 0.04 0.05 0.02 0.00 0.01 0.03 0.04 0.09 0.04
0.00 0.01 0.02 0.01 0.01 0.01 0.01 0.00 0.00 0.01 0.02 0.02 0.01 0.00 0.00 0.00 0.00 0.01 0.02 0.02 0.03 0.02 0.02 0.02 0.03 0.03 0.03 0.05 0.11 0.12 0.11 0.07 0.04 0.02 0.02 0.03 0.02 0.01 0.01 0.02 0.03 0.06 0.04
0.01 0.01 0.02 0.02 0.01 0.01 0.01 0.01 0.00 0.00 0.01 0.01 0.00 0.00 0.00 0.00 0.00 0.01 0.03 0.05 0.09 0.09 0.05 0.04 0.05 0.07 0.10 0.15 0.12 0.11 0.13 0.09 0.04 0.02 0.01 0.07 0.08 0.02 0.00 0.00 0.01 0.01 0.00
0.00 0.01 0.01 0.02 0.02 0.02 0.01 0.01 0.01 0.01 0.01 0.00 0.00 0.00 0.00 0.00 0.00 0.01 0.03 0.08 0.13 0.18 0.21 0.19 0.14 0.15 0.21 0.22 0.14 0.12 0.18 0.15 0.07 0.02 0.02 0.08 0.15 0.11 0.02 0.00 0.00 0.00 0.00
0.00 0.00 0.01 0.03 0.03 0.03 0.03 0.02 0.02 0.01 0.01 0.01 0.01 0.01 0.01 0.00 0.01 0.01 0.03 0.07 0.12 0.17 0.22 0.23 0.20 0.21 0.22 0.20 0.15 0.15 0.27 0.29 0.16 0.02 0.03 0.05 0.13 0.25 0.05 0.01 0.01 0.00 0.00
0.00 0.00 0.01 0.02 0.03 0.04 0.04 0.04 0.03 0.03 0.03 0.02 0.03 0.03 0.03 0.02 0.02 0.02 0.03 0.03 0.06 0.09 0.15 0.18 0.18 0.20 0.24 0.22 0.18 0.22 0.35 0.42 0.20 0.07 0.08 0.09 0.14 0.27 0.13 0.03 0.01 0.00 0.00
0.00 0.00 0.00 0.02 0.03 0.04 0.05 0.05 0.05 0.05 0.05 0.04 0.05 0.06 0.06 0.05 0.04 0.04 0.04 0.04 0.03 0.03 0.07 0.13 0.17 0.19 0.23 0.24 0.22 0.30 0.42 0.42 0.21 0.22 0.12 0.07 0.14 0.25 0.21 0.10 0.03 0.00 0.00
0.00 0.00 0.01 0.01 0.02 0.03 0.04 0.06 0.07 0.08 0.08 0.08 0.08 0.08 0.08 0.07 0.08 0.08 0.08 0.06 0.05 0.03 0.04 0.06 0.10 0.15 0.18 0.19 0.24 0.34 0.39 0.27 0.10 0.07 0.05 0.04 0.13 0.27 0.36 0.23 0.09 0.02 0.00
0.00 0.00 0.00 0.00 0.01 0.01 0.03 0.06 0.08 0.09 0.09 0.08 0.08 0.08 0.06 0.06 0.07 0.10 0.11 0.09 0.07 0.06 0.05 0.04 0.04 0.07 0.09 0.13 0.19 0.20 0.19 0.12 0.05 0.06 0.03 0.04 0.12 0.33 0.51 0.39 0.19 0.06 0.01
0.00 0.00 0.00 0.00 0.00 0.00 0.01 0.04 0.07 0.09 0.09 0.08 0.08 0.07 0.05 0.05 0.06 0.07 0.08 0.07 0.08 0.08 0.07 0.05 0.04 0.04 0.04 0.05 0.08 0.09 0.08 0.07 0.04 0.05 0.05 0.05 0.07 0.30 0.55 0.49 0.33 0.13 0.04
0.00 0.00 0.00 0.00 0.00 0.00 0.00 0.02 0.05 0.07 0.07 0.06 0.06 0.06 0.06 0.04 0.03 0.04 0.04 0.04 0.06 0.07 0.07 0.06 0.05 0.04 0.03 0.01 0.02 0.03 0.03 0.02 0.05 0.06 0.05 0.02 0.05 0.27 0.51 0.51 0.40 0.25 0.11
0.00 0.00 0.00 0.00 0.00 0.00 0.00 0.01 0.03 0.04 0.05 0.05 0.05 0.06 0.07 0.06 0.05 0.05 0.05 0.05 0.07 0.07 0.06 0.07 0.07 0.05 0.03 0.02 0.02 0.01 0.01 0.01 0.04 0.04 0.02 0.00 0.04 0.20 0.40 0.47 0.43 0.33 0.22
0.00 0.00 0.00 0.00 0.00 0.00 0.00 0.01 0.01 0.02 0.05 0.07 0.08 0.10 0.15 0.16 0.13 0.12 0.13 0.12 0.10 0.09 0.11 0.13 0.13 0.10 0.09 0.08 0.06 0.02 0.01 0.01 0.01 0.01 0.01 0.00 0.02 0.11 0.26 0.40 0.46 0.40 0.32
0.00 0.00 0.00 0.00 0.00 0.00 0.00 0.01 0.01 0.01 0.03 0.07 0.09 0.12 0.15 0.18 0.18 0.18 0.18 0.18 0.16 0.15 0.17 0.20 0.21 0.17 0.14 0.11 0.10 0.06 0.03 0.01 0.00 0.01 0.00 0.00 0.01 0.04 0.12 0.25 0.37 0.41 0.36
0.00 0.00 0.00 0.00 0.00 0.00 0.00 0.00 0.00 0.01 0.02 0.03 0.04 0.06 0.07 0.09 0.12 0.12 0.11 0.10 0.11 0.12 0.13 0.15 0.16 0.17 0.16 0.13 0.11 0.08 0.06 0.03 0.02 0.02 0.01 0.00 0.00 0.01 0.04 0.11 0.21 0.35 0.40
0.00 0.00 0.00 0.00 0.00 0.00 0.00 0.00 0.00 0.00 0.00 0.01 0.01 0.02 0.02 0.03 0.03 0.03 0.03 0.02 0.02 0.03 0.04 0.04 0.05 0.06 0.08 0.10 0.09 0.07 0.05 0.04 0.05 0.05 0.04 0.02 0.01 0.02 0.04 0.09 0.15 0.23 0.34
0.00 0.00 0.00 0.00 0.00 0.00 0.00 0.00 0.00 0.00 0.00 0.00 0.00 0.00 0.00 0.00 0.00 0.00 0.01 0.01 0.00 0.01 0.01 0.01 0.01 0.02 0.03 0.06 0.08 0.09 0.06 0.05 0.06 0.09 0.09 0.05 0.04 0.05 0.05 0.09 0.14 0.18 0.26
0.00 0.00 0.00 0.00 0.00 0.00 0.00 0.00 0.00 0.00 0.00 0.00 0.00 0.00 0.00 0.00 0.00 0.00 0.01 0.01 0.01 0.01 0.01 0.02 0.02 0.03 0.05 0.06 0.09 0.13 0.12 0.09 0.10 0.15 0.18 0.12 0.08 0.06 0.06 0.08 0.14 0.23 0.29
0.00 0.00 0.00 0.00 0.00 0.00 0.00 0.00 0.00 0.00 0.00 0.00 0.00 0.00 0.00 0.00 0.00 0.00 0.01 0.01 0.02 0.03 0.03 0.03 0.03 0.05 0.08 0.09 0.13 0.16 0.18 0.16 0.14 0.16 0.20 0.23 0.19 0.12 0.11 0.08 0.09 0.19 0.31
0.00 0.00 0.00 0.00 0.00 0.00 0.00 0.00 0.00 0.00 0.00 0.00 0.00 0.00 0.00 0.00 0.00 0.00 0.01 0.01 0.01 0.02 0.03 0.04 0.05 0.07 0.09 0.11 0.13 0.14 0.19 0.23 0.23 0.22 0.27 0.37 0.36 0.24 0.17 0.12 0.08 0.09 0.15
0.00 0.00 0.00 0.00 0.00 0.00 0.00 0.00 0.00 0.00 0.00 0.00 0.00 0.00 0.00 0.00 0.00 0.01 0.01 0.01 0.01 0.02 0.03 0.03 0.04 0.05 0.05 0.07 0.10 0.11 0.14 0.17 0.17 0.19 0.23 0.36 0.48 0.49 0.40 0.30 0.20 0.13 0.12
0.00 0.00 0.00 0.00 0.00 0.00 0.00 0.00 0.00 0.00 0.00 0.00 0.00 0.00 0.00 0.00 0.00 0.00 0.00 0.00 0.01 0.01 0.01 0.01 0.02 0.02 0.02 0.02 0.04 0.06 0.06 0.08 0.13 0.13 0.13 0.21 0.32 0.39 0.41 0.41 0.37 0.28 0.19
0.00 0.00 0.00 0.00 0.00 0.00 0.00 0.00 0.00 0.00 0.00 0.00 0.00 0.00 0.00 0.00 0.00 0.00 0.00 0.00 0.00 0.00 0.00 0.01 0.01 0.02 0.02 0.02 0.03 0.07 0.05 0.04 0.07 0.06 0.08 0.13 0.15 0.18 0.22 0.27 0.31 0.29 0.27
0.00 0.00 0.00 0.00 0.00 0.00 0.00 0.00 0.00 0.00 0.00 0.00 0.00 0.00 0.00 0.00 0.00 0.00 0.00 0.00 0.00 0.01 0.01 0.01 0.01 0.01 0.02 0.02 0.02 0.03 0.04 0.03 0.04 0.03 0.02 0.02 0.02 0.03 0.05 0.09 0.15 0.18 0.22
0.00 0.00 0.00 0.00 0.00 0.00 0.00 0.00 0.00 0.00 0.00 0.00 0.00 0.00 0.00 0.00 0.00 0.00 0.00 0.00 0.01 0.01 0.01 0.01 0.01 0.02 0.02 0.03 0.03 0.03 0.03 0.03 0.03 0.03 0.02 0.01 0.00 0.00 0.01 0.03 0.05 0.08 0.11
0.00 0.00 0.00 0.00 0.00 0.00 0.00 0.00 0.00 0.00 0.00 0.00 0.00 0.00 0.00 0.01 0.01 0.00 0.01 0.01 0.01 0.01 0.02 0.02 0.03 0.03 0.04 0.04 0.04 0.04 0.04 0.03 0.03 0.04 0.03 0.01 0.01 0.00 0.00 0.01 0.02 0.03 0.06